TimeEST,TemperatureF,Dew PointF,Humidity,Sea Level PressureIn,VisibilityMPH,Wind Direction,Wind SpeedMPH,Gust SpeedMPH,PrecipitationIn,Events,Conditions,WindDirDegrees,DateUTC
12:23 AM,46.4,46.4,100,29.97,1.5,Calm,Calm,-,N/A,,Overcast,0,2012-12-08 05:23:00
12:54 AM,46.0,46.0,100,29.95,0.5,East,3.5,-,N/A,Fog,Fog,100,2012-12-08 05:54:00
1:29 AM,46.4,46.4,100,29.94,0.2,Calm,Calm,-,N/A,Fog,Fog,0,2012-12-08 06:29:00
1:54 AM,46.0,46.0,100,29.94,0.1,Calm,Calm,-,N/A,Fog,Fog,0,2012-12-08 06:54:00
2:54 AM,46.0,46.0,100,29.94,0.1,NE,3.5,-,N/A,Fog,Fog,50,2012-12-08 07:54:00
3:54 AM,46.0,46.0,100,29.92,0.1,Calm,Calm,-,N/A,Fog,Fog,0,2012-12-08 08:54:00
4:11 AM,46.4,46.4,100,29.91,0.1,Calm,Calm,-,N/A,Fog,Fog,0,2012-12-08 09:11:00
4:54 AM,46.0,46.0,100,29.91,0.1,Calm,Calm,-,N/A,Fog,Fog,0,2012-12-08 09:54:00
5:20 AM,46.4,46.4,100,29.92,0.1,Calm,Calm,-,N/A,Fog,Fog,0,2012-12-08 10:20:00
5:54 AM,46.0,46.0,100,29.91,0.2,Calm,Calm,-,N/A,Fog,Fog,0,2012-12-08 10:54:00
5:56 AM,46.4,46.4,100,29.91,0.2,Calm,Calm,-,N/A,Fog,Fog,0,2012-12-08 10:56:00
6:54 AM,46.0,46.0,100,29.93,0.2,Calm,Calm,-,N/A,Fog,Fog,0,2012-12-08 11:54:00
7:54 AM,46.0,46.0,100,29.93,0.2,Calm,Calm,-,N/A,Fog,Fog,0,2012-12-08 12:54:00
8:15 AM,46.4,46.4,100,29.94,1.0,Calm,Calm,-,N/A,,Overcast,0,2012-12-08 13:15:00
8:54 AM,46.9,46.9,100,29.94,1.0,WSW,3.5,-,N/A,,Overcast,250,2012-12-08 13:54:00
9:54 AM,48.0,48.0,100,29.95,1.5,SW,3.5,-,N/A,,Overcast,230,2012-12-08 14:54:00
10:28 AM,48.2,48.2,100,29.95,2.0,SW,5.8,-,N/A,,Overcast,220,2012-12-08 15:28:00
10:54 AM,48.9,48.0,97,29.94,2.5,Calm,Calm,-,N/A,,Overcast,0,2012-12-08 15:54:00
11:54 AM,50.0,48.9,96,29.92,3.0,South,4.6,-,N/A,,Overcast,190,2012-12-08 16:54:00
12:54 PM,51.1,48.9,92,29.91,4.0,SSE,3.5,-,N/A,,Overcast,150,2012-12-08 17:54:00
1:54 PM,52.0,50.0,93,29.90,3.0,South,5.8,-,N/A,,Overcast,180,2012-12-08 18:54:00
2:54 PM,53.1,50.0,89,29.91,4.0,South,4.6,-,N/A,,Mostly Cloudy,170,2012-12-08 19:54:00
3:20 PM,53.6,50.0,88,29.91,5.0,SE,5.8,-,N/A,,Scattered Clouds,130,2012-12-08 20:20:00
3:54 PM,53.1,50.0,89,29.91,6.0,Calm,Calm,-,N/A,,Scattered Clouds,0,2012-12-08 20:54:00
4:54 PM,50.0,48.0,93,29.91,5.0,ESE,4.6,-,N/A,,Scattered Clouds,120,2012-12-08 21:54:00
5:54 PM,50.0,48.9,96,29.94,4.0,Calm,Calm,-,N/A,,Mostly Cloudy,0,2012-12-08 22:54:00
6:54 PM,50.0,50.0,100,29.95,4.0,Calm,Calm,-,N/A,,Overcast,0,2012-12-08 23:54:00
7:54 PM,48.9,48.9,100,29.97,3.0,Calm,Calm,-,N/A,,Mostly Cloudy,0,2012-12-09 00:54:00
8:04 PM,50.0,48.2,94,29.97,3.0,Calm,Calm,-,N/A,,Mostly Cloudy,0,2012-12-09 01:04:00
8:25 PM,50.0,48.2,94,29.97,3.0,Calm,Calm,-,N/A,,Overcast,0,2012-12-09 01:25:00
8:54 PM,50.0,48.9,96,29.99,3.0,Calm,Calm,-,N/A,,Overcast,0,2012-12-09 01:54:00
9:12 PM,50.0,48.2,94,29.99,2.5,Calm,Calm,-,N/A,,Overcast,0,2012-12-09 02:12:00
9:22 PM,50.0,50.0,100,29.99,0.8,Calm,Calm,-,N/A,,Overcast,0,2012-12-09 02:22:00
9:41 PM,50.0,48.2,94,30.00,2.0,Calm,Calm,-,N/A,,Overcast,0,2012-12-09 02:41:00
9:54 PM,50.0,48.9,96,30.01,1.5,Calm,Calm,-,0.00,Rain,Light Rain,0,2012-12-09 02:54:00
10:01 PM,50.0,48.2,94,30.00,0.8,Calm,Calm,-,0.02,Rain,Rain,0,2012-12-09 03:01:00
10:19 PM,50.0,50.0,100,29.99,1.2,Calm,Calm,-,0.02,Rain,Light Rain,0,2012-12-09 03:19:00
10:27 PM,50.0,50.0,100,29.99,1.2,NNE,4.6,-,0.02,,Overcast,30,2012-12-09 03:27:00
10:54 PM,50.0,50.0,100,30.01,2.0,NE,3.5,-,0.02,Rain,Light Rain,50,2012-12-09 03:54:00
11:54 PM,50.0,50.0,100,30.03,1.5,Calm,Calm,-,0.01,,Overcast,0,2012-12-09 04:54:00